Regional Weather Roundup
Issued by NWS Cleveland, OH

Home | Current Version | Previous Version | Graphics & Text | Print | Product List | Glossary On
Versions: 1 2 3 4 5 6 7 8 9 10 11 12 13 14 15 16 17 18 19 20 21 22 23 24 25 26 27 28 29 30 31 32 33 34 35 36 37 38 39 40 41 42 43 44 45 46 47 48 49 50
000
ASUS41 KCLE 180400
RWRCLE
OHIO REGIONAL WEATHER ROUNDUP
NATIONAL WEATHER SERVICE WILMINGTON, OH
1200 AM EDT FRI AUG 18 2017

NOTE: "FAIR" INDICATES FEW OR NO CLOUDS BELOW 12,000 FEET WITH NO
SIGNIFICANT WEATHER AND/OR OBSTRUCTIONS TO VISIBILITY.

OHZ001>008-015>018-024>027-034-035-043-044-180500-
   NORTHWEST OHIO

CITY           SKY/WX    TMP DP  RH WIND       PRES   REMARKS
DEFIANCE       FAIR      72  66  81 SW3       29.80F
FINDLAY        FAIR      73  67  81 SW8       29.82R
TOLEDO EXPRESS FAIR      74  68  81 W13       29.79R
TOLEDO EXEC    FAIR      74  70  87 SW9       29.79S
LIMA           FAIR      74  70  87 SW9       29.84S
$$

OHZ009>014-019>023-028>033-038-089-180500-
   NORTHEAST OHIO

CITY           SKY/WX    TMP DP  RH WIND       PRES   REMARKS
CLE-HOPKINS    FAIR      77  72  84 SW10      29.82S
CLE-LAKEFRONT  FAIR      77  71  82 S13       29.78S
CUY CO. ARPT   NOT AVBL
LORAIN-ELYRIA  FAIR      74  68  81 SW8       29.81S
ASHTABULA      FAIR      74  73  97 SW8       29.82R
AKRON-CANTON   FAIR      74  69  85 SW9       29.86R
WOOSTER        NOT AVBL
MANSFIELD      FAIR      74  72  93 SW9       29.85S
YOUNGSTOWN     MOCLDY    74  71  91 SW8       29.84S
$$

OHZ042-051>053-060>062-070>072-077>081-180500-
  SOUTHWEST OHIO

CITY           SKY/WX    TMP DP  RH WIND       PRES   REMARKS
CINC-COVINGTON MOCLDY    73  73 100 SW7       29.89S
CINC-LUNKEN    FAIR      73  73 100 CALM      29.88S
HAMILTON       CLOUDY    75  74  96 S3        29.88S
DAYTON         FAIR      75  73  93 S13       29.88S
WRIGHT-PAT AFB NOT AVBL
DAYTON GENERAL MOCLDY    74  71  91 S8        29.87S
WILMINGTON     CLOUDY    72  72 100 SW8       29.88F
$$

OHZ036-037-039>041-045>050-054>059-063>069-073>076-082>088-180500-
  CENTRAL AND SOUTHEAST OHIO

CITY           SKY/WX    TMP DP  RH WIND       PRES   REMARKS
COLUMBUS       CLOUDY    75  74  96 S7        29.86S
OSU AIRPORT    FAIR      75  74  96 SW10      29.86S
BOLTON FIELD   NOT AVBL
RICKENBACK AFB NOT AVBL
NEWARK         FAIR      74  71  91 S5        29.86S
MARION         FAIR      74  71  91 SW9       29.85S
LANCASTER      MOCLDY    74  32  21 SW7       29.88S
ZANESVILLE     MOCLDY    73  70  90 S7        29.88S
NEW PHILLY     CLOUDY    73  71  93 SE3       29.87S
$$



USA.gov is the U.S. government's official web portal to all federal, state and local government web resources and services.